Location: Banksville Park
(38.5557°N, 75.1182°W)
Time: 23:18:42
(UTC+00:00)

USA 32 - Pass Details

Date: 19 September 2020
Orbit: 778 x 782 km, 85.0° (Epoch: 27 September)

Event Time Altitude Azimuth Distance (km) Brightness Sun altitude
Rises 10:02:23 0° 347° (NNW) 3,273 7.2 -9.3°
Reaches altitude 10° 10:04:52 10° 340° (NNW) 2,341 6.4 -8.8°
Maximum altitude 10:09:43 40° 272° (W) 1,147 4.5 -7.9°
Drops below altitude 10° 10:14:33 10° 205° (SSW) 2,329 6.2 -7.0°
Sets 10:17:01 0° 197° (SSW) 3,253 7.0 -6.5°
